Volver al catálogo

MARS EXPRESS

ActivoCienciaHCO
NORAD 27816·PAYLOAD·🇪🇺 EU

Lanzado Jun 2, 2003 desde Baikonur Cosmodrome

Loading…

TLE

ObsoletoSource: Space-Track

Época: Jun 2, 2003, 17:55 UTC

1 27816U 03022A   03153.74696760 -.00003884 +12281-4 +00000-0 0  9990
2 27816 051.7550 167.6480 0000010 000.0000 088.2820 16.35650938000006

Sigue MARS EXPRESS en tiempo real con AllMySat

Download on the App Store